When you browse on this site, cookies collect data to enhance your experience and personalize the content and advertising you see.
Visit our Privacy Policy to learn more. By continuing to use the site, you agree to this use of cookies and data.
  • In Germany
  • List of Countries
  • For 7 days
  • Water Temperature
  • Satellite Maps
  • Weather Map
  • Weather Widgets
  • user-avatar
    Login

    Hourly Weather Biskira

    Today, 17 June, Monday

    Time Temperature Precipitation Wind Pressure Humidity
    00:00 +34°C° 0 mm 6 mps 749 mmHg 29%
    01:00 +33°C° 0 mm 5 mps 749 mmHg 32%
    02:00 +32°C° 0 mm 4 mps 749 mmHg 34%
    03:00 +30°C° 0 mm 3 mps 749 mmHg 36%
    04:00 +31°C° 0 mm 3 mps 749 mmHg 35%
    05:00 +31°C° 0 mm 2 mps 750 mmHg 35%
    06:00 +31°C° 0 mm 1 mps 750 mmHg 35%
    07:00 +34°C° 0 mm 2 mps 750 mmHg 32%
    08:00 +35°C° 0 mm 2 mps 750 mmHg 29%
    09:00 +37°C° 0 mm 2 mps 750 mmHg 26%
    10:00 +38°C° 0 mm 2 mps 749 mmHg 23%
    11:00 +39°C° 0 mm 2 mps 749 mmHg 20%
    12:00 +40°C° 0 mm 2 mps 749 mmHg 17%
    13:00 +41°C° 0 mm 2 mps 748 mmHg 16%
    14:00 +41°C° 0 mm 2 mps 748 mmHg 15%
    15:00 +42°C° 0 mm 2 mps 747 mmHg 14%
    16:00 +42°C° 0 mm 3 mps 748 mmHg 16%
    17:00 +40°C° 0 mm 5 mps 748 mmHg 19%
    18:00 +39°C° 0 mm 6 mps 749 mmHg 21%
    19:00 +37°C° 0 mm 5 mps 749 mmHg 23%
    20:00 +37°C° 0 mm 4 mps 750 mmHg 25%
    21:00 +36°C° 0 mm 3 mps 750 mmHg 26%
    22:00 +35°C° 0 mm 2 mps 751 mmHg 28%
    23:00 +34°C° 0 mm 2 mps 751 mmHg 30%

    Tomorrow, 18 June, Tuesday

    Time Temperature Precipitation Wind Pressure Humidity
    00:00 +32°C° 0 mm 2 mps 751 mmHg 32%
    01:00 +32°C° 0 mm 2 mps 751 mmHg 33%
    02:00 +31°C° 0 mm 2 mps 751 mmHg 34%
    03:00 +31°C° 0 mm 2 mps 751 mmHg 35%
    04:00 +31°C° 0 mm 3 mps 751 mmHg 35%
    05:00 +31°C° 0 mm 3 mps 751 mmHg 34%
    06:00 +33°C° 0 mm 3 mps 751 mmHg 34%
    07:00 +34°C° 0 mm 3 mps 751 mmHg 31%
    08:00 +36°C° 0 mm 3 mps 751 mmHg 27%
    09:00 +37°C° 0 mm 3 mps 751 mmHg 23%
    10:00 +38°C° 0 mm 3 mps 751 mmHg 21%
    11:00 +39°C° 0 mm 3 mps 751 mmHg 20%
    12:00 +40°C° 0 mm 3 mps 751 mmHg 18%
    13:00 +40°C° 0 mm 3 mps 750 mmHg 16%
    14:00 +42°C° 0 mm 3 mps 750 mmHg 15%
    15:00 +41°C° 0 mm 2 mps 749 mmHg 14%
    16:00 +41°C° 0 mm 2 mps 749 mmHg 13%
    17:00 +41°C° 0 mm 2 mps 749 mmHg 13%
    18:00 +41°C° 0 mm 2 mps 749 mmHg 13%
    19:00 +40°C° 0 mm 3 mps 750 mmHg 15%
    20:00 +39°C° 0 mm 3 mps 750 mmHg 17%
    21:00 +37°C° 0 mm 4 mps 751 mmHg 19%
    22:00 +37°C° 0 mm 3 mps 751 mmHg 20%
    23:00 +36°C° 0 mm 3 mps 751 mmHg 21%

    Day after tomorrow, 19 June, Wednesday

    Time Temperature Precipitation Wind Pressure Humidity
    00:00 +35°C° 0 mm 3 mps 751 mmHg 22%
    01:00 +34°C° 0 mm 4 mps 751 mmHg 25%
    02:00 +33°C° 0 mm 5 mps 751 mmHg 29%
    03:00 +30°C° 0 mm 6 mps 751 mmHg 32%
    04:00 +30°C° 0 mm 5 mps 751 mmHg 32%
    05:00 +30°C° 0 mm 4 mps 752 mmHg 32%
    06:00 +30°C° 0 mm 3 mps 752 mmHg 32%
    07:00 +33°C° 0 mm 3 mps 752 mmHg 29%
    08:00 +34°C° 0 mm 3 mps 752 mmHg 25%
    09:00 +36°C° 0 mm 3 mps 752 mmHg 22%
    10:00 +37°C° 0 mm 3 mps 752 mmHg 20%
    11:00 +38°C° 0 mm 3 mps 752 mmHg 19%
    12:00 +39°C° 0 mm 2 mps 751 mmHg 17%
    13:00 +40°C° 0 mm 2 mps 751 mmHg 16%
    14:00 +41°C° 0 mm 2 mps 750 mmHg 15%
    15:00 +42°C° 0 mm 2 mps 749 mmHg 14%
    16:00 +43°C° 0 mm 3 mps 749 mmHg 14%
    17:00 +43°C° 0 mm 3 mps 749 mmHg 14%
    18:00 +43°C° 0 mm 3 mps 749 mmHg 14%
    19:00 +40°C° 0 mm 3 mps 750 mmHg 15%
    20:00 +39°C° 0 mm 2 mps 750 mmHg 16%
    21:00 +38°C° 0 mm 2 mps 751 mmHg 18%
    22:00 +36°C° 0 mm 1 mps 751 mmHg 19%
    23:00 +35°C° 0 mm 1 mps 750 mmHg 20%

    20 June, Thursday

    Time Temperature Precipitation Wind Pressure Humidity
    00:00 +32°C° 0 mm 0 mps 750 mmHg 21%
    01:00 +34°C° 0 mm 1 mps 750 mmHg 21%
    02:00 +34°C° 0 mm 1 mps 750 mmHg 21%
    03:00 +34°C° 0 mm 2 mps 750 mmHg 21%
    04:00 +35°C° 0 mm 2 mps 750 mmHg 21%
    05:00 +36°C° 0 mm 2 mps 750 mmHg 20%
    06:00 +36°C° 0 mm 2 mps 750 mmHg 19%
    07:00 +37°C° 0 mm 2 mps 751 mmHg 18%
    08:00 +38°C° 0 mm 3 mps 751 mmHg 17%
    09:00 +41°C° 0 mm 4 mps 751 mmHg 16%
    10:00 +42°C° 0 mm 4 mps 751 mmHg 15%
    11:00 +43°C° 0 mm 4 mps 750 mmHg 14%
    12:00 +45°C° 0 mm 5 mps 750 mmHg 13%
    13:00 +46°C° 0 mm 5 mps 750 mmHg 12%
    14:00 +45°C° 0 mm 4 mps 749 mmHg 11%
    15:00 +47°C° 0 mm 4 mps 749 mmHg 10%
    16:00 +47°C° 0 mm 4 mps 749 mmHg 10%
    17:00 +47°C° 0 mm 4 mps 749 mmHg 9%
    18:00 +46°C° 0 mm 5 mps 749 mmHg 9%
    19:00 +44°C° 0 mm 4 mps 749 mmHg 10%
    20:00 +42°C° 0 mm 4 mps 749 mmHg 11%
    21:00 +41°C° 0 mm 4 mps 749 mmHg 13%
    22:00 +40°C° 0 mm 4 mps 749 mmHg 14%
    23:00 +40°C° 0 mm 4 mps 749 mmHg 15%

    21 June, Friday

    Time Temperature Precipitation Wind Pressure Humidity
    00:00 +38°C° 0 mm 4 mps 749 mmHg 16%
    01:00 +37°C° 0 mm 5 mps 749 mmHg 19%
    02:00 +36°C° 0 mm 6 mps 749 mmHg 23%
    03:00 +35°C° 0 mm 7 mps 749 mmHg 26%
    04:00 +35°C° 0 mm 7 mps 749 mmHg 26%
    05:00 +37°C° 0 mm 8 mps 749 mmHg 26%
    06:00 +37°C° 0 mm 8 mps 750 mmHg 25%
    07:00 +38°C° 0 mm 8 mps 750 mmHg 23%
    08:00 +40°C° 0 mm 8 mps 750 mmHg 20%
    09:00 +41°C° 0 mm 7 mps 751 mmHg 18%
    10:00 +43°C° 0 mm 7 mps 750 mmHg 16%
    11:00 +44°C° 0 mm 6 mps 750 mmHg 15%
    12:00 +45°C° 0 mm 5 mps 750 mmHg 13%
    13:00 +46°C° 0 mm 5 mps 749 mmHg 12%
    14:00 +47°C° 0 mm 5 mps 748 mmHg 11%
    15:00 +48°C° 0 mm 4 mps 748 mmHg 10%
    16:00 +47°C° 0 mm 5 mps 748 mmHg 10%
    17:00 +47°C° 0 mm 5 mps 748 mmHg 10%
    18:00 +47°C° 0 mm 6 mps 747 mmHg 10%
    19:00 +45°C° 0 mm 5 mps 748 mmHg 11%
    20:00 +43°C° 0 mm 5 mps 748 mmHg 11%
    21:00 +42°C° 0 mm 5 mps 749 mmHg 12%
    22:00 +41°C° 0 mm 7 mps 749 mmHg 14%
    23:00 +40°C° 0 mm 8 mps 749 mmHg 17%

    22 June, Saturday

    Time Temperature Precipitation Wind Pressure Humidity
    00:00 +39°C° 0 mm 10 mps 749 mmHg 19%
    01:00 +38°C° 0 mm 10 mps 749 mmHg 20%
    02:00 +37°C° 0 mm 9 mps 749 mmHg 21%
    03:00 +37°C° 0 mm 9 mps 749 mmHg 22%
    04:00 +37°C° 0 mm 8 mps 749 mmHg 21%
    05:00 +37°C° 0 mm 8 mps 750 mmHg 20%
    06:00 +36°C° 0 mm 7 mps 750 mmHg 19%
    07:00 +39°C° 0 mm 7 mps 750 mmHg 17%
    08:00 +40°C° 0 mm 7 mps 751 mmHg 15%
    09:00 +41°C° 0 mm 6 mps 751 mmHg 13%
    10:00 +42°C° 0 mm 6 mps 750 mmHg 12%
    11:00 +44°C° 0 mm 6 mps 750 mmHg 11%
    12:00 +45°C° 0 mm 5 mps 750 mmHg 11%
    13:00 +46°C° 0 mm 5 mps 750 mmHg 10%
    14:00 +47°C° 0 mm 5 mps 749 mmHg 9%
    15:00 +48°C° 0 mm 4 mps 749 mmHg 8%
    16:00 +48°C° 0 mm 5 mps 749 mmHg 8%
    17:00 +48°C° 0 mm 6 mps 749 mmHg 8%
    18:00 +47°C° 0 mm 6 mps 749 mmHg 8%
    19:00 +46°C° 0 mm 6 mps 749 mmHg 9%
    20:00 +44°C° 0 mm 6 mps 750 mmHg 10%
    21:00 +42°C° 0 mm 5 mps 750 mmHg 11%
    22:00 +41°C° 0 mm 6 mps 750 mmHg 12%
    23:00 +40°C° 0 mm 6 mps 751 mmHg 13%
    Show more